Regional Weather Roundup
Issued by NWS New Orleans/Baton Rouge, LA

Home | Current Version | Previous Version | Text Only | Print | Product List | Glossary Off
Versions: 1 2 3 4 5 6 7 8 9 10 11 12 13 14 15 16 17 18 19 20 21 22 23 24 25 26 27 28 29 30 31 32 33 34 35 36 37 38 39 40 41 42 43 44 45 46 47 48 49 50

852
ASUS44 KLIX 010810
RWRLIX
NEW ORLEANS REGIONAL WEATHER ROUNDUP
NATIONAL WEATHER SERVICE NEW ORLEANS LA
300 AM CDT FRI AUG 01 2014

NOTE: "FAIR" INDICATES FEW OR NO CLOUDS BELOW 12,000 FEET WITH NO
      SIGNIFICANT WEATHER AND/OR OBSTRUCTIONS TO VISIBILITY.
      SKY/WX - SKY CONDITION AND SIGNIFICANT WEATHER.
      TMP - AIR TEMPERATURE.     DP    - DEWPOINT TEMPERATURE.
      RH  - RELATIVE HUMIDITY.   PRES  - PRESSURE.
      HI  - HEAT INDEX.          WCI   - WIND CHILL INDEX.

*  THESE STATIONS ARE NOT NWS OR FAA STATIONS AND ARE NOT UNDER
   NWS QUALITY CONTROL.

LAZ038-040-048-061>063-065>067-069-010900-
SOUTHEAST LOUISIANA

CITY           SKY/WX    TMP DP  RH WIND       PRES   REMARKS
N.O. AUDUBON     N/A     81  69  67 MISG        N/A
N.O. INTL ARPT CLOUDY    79  70  74 CALM      29.97F
N.O. LAKEFRONT CLOUDY    81  69  67 E3        29.98F
N.O. DOWNTOWN*   N/A     82  64  54 CALM      29.98S
SLIDELL        CLOUDY    73  69  87 N3        29.97F
BATON ROUGE    CLOUDY    73  67  81 E7        29.97F
BOOTHVILLE     MOCLDY    78  67  68 CALM      29.98S
BELLE CHASSE   CLOUDY    75  71  87 CALM      29.97F
BOGALUSA*        N/A     73  68  86 CALM      30.00F
GALLIANO*      NOT AVBL
NEW ROADS*       N/A     73  67  79 E5        29.97S
GONZALES*        N/A     74  73  99 CALM      29.97F
HAMMOND*       CLOUDY    73  66  78 CALM      30.00S
HOUMA*         MOCLDY    74  70  87 CALM      29.97S
PORT FOURCHON* SUNNY     82  66  57 CALM      29.98F

$$

MSZ070-080>082-010900-
SOUTHERN MISSISSIPPI

CITY           SKY/WX    TMP DP  RH WIND       PRES   REMARKS
MCCOMB         CLOUDY    72  65  78 CALM      30.00S
GULFPORT       CLOUDY    77  66  68 N6        29.98S
BILOXI         CLOUDY    74  68  79 NE5       29.98S
PASCAGOULA     PTCLDY    68  67  96 CALM      29.98S

$$

COASTAL OBSERVATIONS
LAKE AND NEARSHORE STATIONS

STATION/POSITION TIME  TEMP    WIND        PRES    WAVE
                       AIR SEA DIR/SP/G            HT/PER
                 (UTC) (F)     (DEG/KT/KT) (MB)    (FT/S)
PASCAGOULA       0800   75      10/  7/  8 1014.5
WAVELAND YACHT   0800   77     340/  5/  6 1014.7
GRAND ISLE       0800   82 87  130/  1/  3 1015.5
SOUTHWEST PASS   0800   80 85   80/  2/  3 1015.2
NEW CANAL        0800   81 83     CALM     1015.5
SHELL BEACH      0800   81 82     CALM     1014.8

OFFSHORE STATIONS

STATION/POSITION TIME  TEMP    WIND        PRES    WAVE
                       AIR SEA DIR/SP/G            HT/PER
                 (UTC) (F)     (DEG/KT/KT) (MB)    (FT/S)
64 S DAUPHIN ISL 0704   81 84  350/  2/  4 1014.7

$$




USA.gov is the U.S. government's official web portal to all federal, state and local government web resources and services.